{"data":{"norad_id":58372,"epoch":"2026-09-20T20:56:38.946336Z","epoch_age_seconds":111358,"freshness":"FRESH","line1":"1 58372U 23177X   26263.87267299 -.00004104  00000+0 -13973-3 0  9990","line2":"2 58372  43.0047 328.6929 0000871 276.3517  83.7235 15.27573570158072","mean_motion":15.2757357,"eccentricity":8.71e-5,"inclination_deg":43.0047,"raan_deg":328.6929,"arg_perigee_deg":276.3517,"mean_anomaly_deg":83.7235,"bstar":-0.00013973,"rev_number":15807,"period_min":94.267145509725,"perigee_km":482.4707388544,"apogee_km":483.66596082634,"semimajor_km":6861.2053498404,"source":"CELESTRAK","updated_at":"2026-09-21T09:00:33.864110Z"}}